This demonstration page uses our WeatherBlox Daily Observations layout. Learn more.

Left ArrowRight Arrow

44.8408, -93.29828

Hourly Observations for May 21, 2016

Temp ( °F °C ) Dew Point ( °F °C ) Humidity (%) Winds ( mph kmh ) Pressure ( in mb ) Visibility ( mi km ) Precip ( " mm )
12:53 am 00:53 Mostly Cloudy 58 14.4 47 8.3 67 67 Calm 30.14 1021 10 16 0.00 0.00
1:53 am 01:53 Mostly Cloudy 57 13.9 44 6.7 62 62 Calm 30.13 1020 10 16 0.00 0.00
2:53 am 02:53 Mostly Cloudy 56 13.3 45 7.2 67 67 Calm 30.14 1021 10 16 0.00 0.00
3:53 am 03:53 Mostly Clear 56 13.3 44 6.7 65 65 E 3 6 30.15 1021 10 16 0.00 0.00
4:53 am 04:53 Mostly Cloudy 55 12.8 44 6.7 67 67 Calm 30.16 1021 10 16 0.00 0.00
5:53 am 05:53 Partly Cloudy 56 13.3 44 6.7 65 65 Calm 30.17 1022 10 16 0.00 0.00
6:53 am 06:53 Mostly Sunny 57 13.9 44 6.7 62 62 Calm 30.19 1022 9 14 0.00 0.00
7:53 am 07:53 Partly Cloudy 59 15 47 8.3 64 64 ENE 3 6 30.20 1023 10 16 0.00 0.00
8:53 am 08:53 Sunny 63 17.2 44 6.7 50 50 Calm 30.21 1023 10 16 0.00 0.00
9:53 am 09:53 Sunny 70 21.1 45 7.2 41 41 Calm 30.21 1023 10 16 0.00 0.00
10:53 am 10:53 Sunny 73 22.8 45 7.2 37 37 VRB 3 6 30.21 1023 10 16 0.00 0.00
11:53 am 11:53 Mostly Sunny 75 23.9 39 3.9 27 27 VRB 3 6 30.20 1023 10 16 0.00 0.00
12:53 pm 12:53 Mostly Sunny 76 24.4 41 5 29 29 VRB 5 7 30.18 1022 10 16 0.00 0.00
1:53 pm 13:53 Mostly Sunny 78 25.6 40 4.4 26 26 ESE 8 13 30.16 1021 10 16 0.00 0.00
2:53 pm 14:53 Sunny 78 25.6 39 3.9 25 25 ENE 8 13 30.15 1021 10 16 0.00 0.00
3:53 pm 15:53 Sunny 78 25.6 36 2.2 22 22 VRB 5 7 30.13 1020 10 16 0.00 0.00
4:53 pm 16:53 Sunny 79 26.1 36 2.2 21 21 NE 6 9 30.11 1020 10 16 0.00 0.00
5:53 pm 17:53 Sunny 78 25.6 37 2.8 23 23 S 5 7 30.10 1019 10 16 0.00 0.00
6:53 pm 18:53 Sunny 79 26.1 35 1.7 20 20 Calm 30.09 1019 10 16 0.00 0.00
7:53 pm 19:53 Sunny 76 24.4 36 2.2 23 23 ENE 6 9 30.09 1019 10 16 0.00 0.00
8:53 pm 20:53 Clear 74 23.3 36 2.2 25 25 SE 3 6 30.09 1019 10 16 0.00 0.00
9:53 pm 21:53 Clear 71 21.7 38 3.3 30 30 Calm 30.09 1019 10 16 0.00 0.00
10:53 pm 22:53 Clear 67 19.4 41 5 39 39 Calm 30.10 1019 10 16 0.00 0.00
11:53 pm 23:53 Clear 64 17.8 45 7.2 50 50 Calm 30.10 1019 10 16 0.00 0.00

Powered by AerisWeather